When you browse on this site, cookies collect data to enhance your experience and personalize the content and advertising you see.
Visit our Privacy Policy to learn more. By continuing to use the site, you agree to this use of cookies and data.
  • In Germany
  • List of Countries
  • For 7 days
  • Water Temperature
  • Satellite Maps
  • Weather Map
  • Weather Widgets
  • user-avatar
    Login

    Hourly Weather Ndofane

    Today, 18 February, Monday

    Time Temperature Precipitation Wind Pressure Humidity
    00:00 +22°C° 0 mm 7 mps 759 mmHg 53%
    01:00 +21°C° 0 mm 7 mps 758 mmHg 56%
    02:00 +21°C° 0 mm 6 mps 758 mmHg 58%
    03:00 +21°C° 0 mm 6 mps 758 mmHg 61%
    04:00 +20°C° 0 mm 6 mps 758 mmHg 64%
    05:00 +20°C° 0 mm 5 mps 758 mmHg 69%
    06:00 +20°C° 0 mm 5 mps 758 mmHg 66%
    07:00 +21°C° 0 mm 5 mps 759 mmHg 64%
    08:00 +22°C° 0 mm 5 mps 759 mmHg 61%
    09:00 +26°C° 0 mm 4 mps 759 mmHg 48%
    10:00 +29°C° 0 mm 4 mps 759 mmHg 35%
    11:00 +33°C° 0 mm 3 mps 759 mmHg 21%
    12:00 +34°C° 0 mm 3 mps 758 mmHg 19%
    13:00 +36°C° 0 mm 3 mps 758 mmHg 16%
    14:00 +37°C° 0 mm 4 mps 757 mmHg 14%
    15:00 +37°C° 0 mm 5 mps 757 mmHg 16%
    16:00 +36°C° 0 mm 5 mps 756 mmHg 18%
    17:00 +35°C° 0 mm 6 mps 756 mmHg 20%
    18:00 +32°C° 0 mm 6 mps 757 mmHg 24%
    19:00 +29°C° 0 mm 6 mps 757 mmHg 29%
    20:00 +26°C° 0 mm 5 mps 757 mmHg 33%
    21:00 +25°C° 0 mm 5 mps 758 mmHg 33%
    22:00 +25°C° 0 mm 5 mps 758 mmHg 32%
    23:00 +25°C° 0 mm 4 mps 758 mmHg 32%

    Tomorrow, 19 February, Tuesday

    Time Temperature Precipitation Wind Pressure Humidity
    00:00 +23°C° 0 mm 4 mps 758 mmHg 34%
    01:00 +23°C° 0 mm 4 mps 758 mmHg 36%
    02:00 +23°C° 0 mm 4 mps 758 mmHg 38%
    03:00 +22°C° 0 mm 4 mps 757 mmHg 41%
    04:00 +22°C° 0 mm 4 mps 757 mmHg 45%
    05:00 +22°C° 0 mm 4 mps 757 mmHg 49%
    06:00 +22°C° 0 mm 4 mps 758 mmHg 49%
    07:00 +23°C° 0 mm 4 mps 758 mmHg 50%
    08:00 +23°C° 0 mm 4 mps 758 mmHg 50%
    09:00 +26°C° 0 mm 4 mps 758 mmHg 43%
    10:00 +28°C° 0 mm 4 mps 758 mmHg 35%
    11:00 +30°C° 0 mm 4 mps 758 mmHg 28%
    12:00 +32°C° 0 mm 4 mps 758 mmHg 24%
    13:00 +34°C° 0 mm 4 mps 757 mmHg 20%
    14:00 +35°C° 0 mm 4 mps 756 mmHg 16%
    15:00 +35°C° 0 mm 4 mps 756 mmHg 17%
    16:00 +35°C° 0 mm 4 mps 756 mmHg 17%
    17:00 +35°C° 0 mm 4 mps 756 mmHg 18%
    18:00 +32°C° 0 mm 4 mps 756 mmHg 22%
    19:00 +29°C° 0 mm 4 mps 756 mmHg 25%
    20:00 +27°C° 0 mm 4 mps 757 mmHg 29%
    21:00 +26°C° 0 mm 4 mps 757 mmHg 28%
    22:00 +25°C° 0 mm 4 mps 757 mmHg 28%
    23:00 +23°C° 0 mm 4 mps 757 mmHg 28%

    Day after tomorrow, 20 February, Wednesday

    Time Temperature Precipitation Wind Pressure Humidity
    00:00 +23°C° 0 mm 4 mps 757 mmHg 30%
    01:00 +22°C° 0 mm 4 mps 757 mmHg 33%
    02:00 +22°C° 0 mm 4 mps 756 mmHg 35%
    03:00 +21°C° 0 mm 4 mps 756 mmHg 39%
    04:00 +21°C° 0 mm 4 mps 756 mmHg 42%
    05:00 +20°C° 0 mm 4 mps 756 mmHg 46%
    06:00 +21°C° 0 mm 4 mps 757 mmHg 41%
    07:00 +22°C° 0 mm 4 mps 757 mmHg 36%
    08:00 +23°C° 0 mm 4 mps 758 mmHg 32%
    09:00 +27°C° 0 mm 3 mps 758 mmHg 23%
    10:00 +30°C° 0 mm 3 mps 758 mmHg 15%
    11:00 +35°C° 0 mm 3 mps 758 mmHg 7%
    12:00 +36°C° 0 mm 3 mps 758 mmHg 7%
    13:00 +37°C° 0 mm 3 mps 757 mmHg 7%
    14:00 +38°C° 0 mm 3 mps 756 mmHg 7%
    15:00 +37°C° 0 mm 4 mps 756 mmHg 11%
    16:00 +36°C° 0 mm 5 mps 756 mmHg 15%
    17:00 +35°C° 0 mm 6 mps 756 mmHg 18%
    18:00 +33°C° 0 mm 5 mps 756 mmHg 20%
    19:00 +30°C° 0 mm 5 mps 757 mmHg 22%
    20:00 +28°C° 0 mm 4 mps 757 mmHg 24%
    21:00 +27°C° 0 mm 4 mps 758 mmHg 24%
    22:00 +26°C° 0 mm 4 mps 758 mmHg 23%
    23:00 +26°C° 0 mm 4 mps 758 mmHg 23%

    21 February, Thursday

    Time Temperature Precipitation Wind Pressure Humidity
    00:00 +26°C° 0 mm 4 mps 758 mmHg 25%
    01:00 +25°C° 0 mm 4 mps 758 mmHg 28%
    02:00 +25°C° 0 mm 4 mps 757 mmHg 30%
    03:00 +23°C° 0 mm 4 mps 757 mmHg 33%
    04:00 +23°C° 0 mm 4 mps 757 mmHg 35%
    05:00 +22°C° 0 mm 4 mps 757 mmHg 38%
    06:00 +23°C° 0 mm 4 mps 758 mmHg 34%
    07:00 +25°C° 0 mm 4 mps 758 mmHg 29%
    08:00 +26°C° 0 mm 4 mps 759 mmHg 25%
    09:00 +29°C° 0 mm 4 mps 759 mmHg 19%
    10:00 +34°C° 0 mm 3 mps 759 mmHg 13%
    11:00 +37°C° 0 mm 3 mps 759 mmHg 8%
    12:00 +38°C° 0 mm 3 mps 758 mmHg 8%
    13:00 +39°C° 0 mm 3 mps 757 mmHg 8%
    14:00 +40°C° 0 mm 3 mps 757 mmHg 9%
    15:00 +41°C° 0 mm 4 mps 757 mmHg 10%
    16:00 +40°C° 0 mm 5 mps 757 mmHg 10%
    17:00 +39°C° 0 mm 6 mps 757 mmHg 11%
    18:00 +35°C° 0 mm 6 mps 757 mmHg 14%
    19:00 +33°C° 0 mm 6 mps 758 mmHg 16%
    20:00 +29°C° 0 mm 6 mps 758 mmHg 18%
    21:00 +28°C° 0 mm 5 mps 759 mmHg 20%
    22:00 +27°C° 0 mm 5 mps 759 mmHg 22%
    23:00 +26°C° 0 mm 5 mps 759 mmHg 24%

    22 February, Friday

    Time Temperature Precipitation Wind Pressure Humidity
    00:00 +26°C° 0 mm 5 mps 759 mmHg 25%
    01:00 +25°C° 0 mm 5 mps 758 mmHg 26%
    02:00 +25°C° 0 mm 5 mps 758 mmHg 28%
    03:00 +25°C° 0 mm 5 mps 758 mmHg 28%
    04:00 +25°C° 0 mm 5 mps 758 mmHg 27%
    05:00 +23°C° 0 mm 5 mps 758 mmHg 27%
    06:00 +26°C° 0 mm 5 mps 759 mmHg 24%
    07:00 +27°C° 0 mm 6 mps 759 mmHg 21%
    08:00 +28°C° 0 mm 6 mps 760 mmHg 18%
    09:00 +32°C° 0 mm 6 mps 759 mmHg 14%
    10:00 +36°C° 0 mm 6 mps 759 mmHg 11%
    11:00 +40°C° 0 mm 5 mps 759 mmHg 7%
    12:00 +41°C° 0 mm 5 mps 758 mmHg 7%
    13:00 +42°C° 0 mm 4 mps 758 mmHg 7%
    14:00 +43°C° 0 mm 4 mps 757 mmHg 6%
    15:00 +43°C° 0 mm 5 mps 757 mmHg 7%
    16:00 +42°C° 0 mm 6 mps 756 mmHg 8%
    17:00 +41°C° 0 mm 7 mps 756 mmHg 9%
    18:00 +38°C° 0 mm 7 mps 757 mmHg 14%
    19:00 +33°C° 0 mm 7 mps 758 mmHg 19%
    20:00 +29°C° 0 mm 7 mps 758 mmHg 24%
    21:00 +28°C° 0 mm 7 mps 758 mmHg 25%
    22:00 +28°C° 0 mm 7 mps 758 mmHg 27%
    23:00 +27°C° 0 mm 7 mps 759 mmHg 28%

    23 February, Saturday

    Time Temperature Precipitation Wind Pressure Humidity
    00:00 +27°C° 0 mm 7 mps 758 mmHg 28%
    01:00 +26°C° 0 mm 7 mps 758 mmHg 29%
    02:00 +26°C° 0 mm 7 mps 758 mmHg 29%
    03:00 +26°C° 0 mm 7 mps 758 mmHg 30%
    04:00 +24°C° 0 mm 7 mps 758 mmHg 30%
    05:00 +24°C° 0 mm 7 mps 758 mmHg 30%
    06:00 +26°C° 0 mm 7 mps 758 mmHg 27%
    07:00 +26°C° 0 mm 7 mps 759 mmHg 25%
    08:00 +27°C° 0 mm 7 mps 759 mmHg 22%
    09:00 +30°C° 0 mm 7 mps 759 mmHg 17%
    10:00 +35°C° 0 mm 6 mps 759 mmHg 12%
    11:00 +39°C° 0 mm 6 mps 759 mmHg 7%
    12:00 +40°C° 0 mm 5 mps 758 mmHg 6%
    13:00 +42°C° 0 mm 5 mps 757 mmHg 6%
    14:00 +43°C° 0 mm 4 mps 756 mmHg 6%
    15:00 +42°C° 0 mm 4 mps 756 mmHg 6%
    16:00 +42°C° 0 mm 5 mps 756 mmHg 7%
    17:00 +41°C° 0 mm 5 mps 756 mmHg 8%
    18:00 +38°C° 0 mm 6 mps 756 mmHg 12%
    19:00 +34°C° 0 mm 6 mps 757 mmHg 15%
    20:00 +30°C° 0 mm 7 mps 757 mmHg 19%
    21:00 +29°C° 0 mm 7 mps 758 mmHg 21%
    22:00 +29°C° 0 mm 7 mps 758 mmHg 22%
    23:00 +28°C° 0 mm 7 mps 758 mmHg 24%
    Show more